ACA1184 CYUL-MMMX

Flight info

Callsign ACA1184
Flight time N/A
Altitude 38000
Route FAWNS DCT BUGSY DCT SYR DCT EWC DCT AIR DCT HNN DCT TONIO DCT VXV DCT MCB DCT TBD/N0471F400 M575 KENGS M345 AXEXO UM345 PAZ UT154 ENAGA ENAGA3A
Aircraft A343/H-SDE2E3FGHIJ4J5M1RWXY/LB1D1

Departure

Time 2026-05-07 20:48
Airport Montreal / Pierre Elliott Trudeau International Airport (CYUL)

Arrival

Time N/A
Airport Mexico City Benito Juárez International Airport (MMMX)
Time Latitude Longitude Altitude Speed Heading
2026-05-07 20:23 45.45818 -73.75765 108 ft 0 kts 33°
2026-05-07 20:33 45.45815 -73.75767 107 ft 3 kts 33°
2026-05-07 20:33 45.45799 -73.75782 106 ft 3 kts 33°
2026-05-07 20:33 45.45784 -73.75797 107 ft 3 kts 20°
2026-05-07 20:34 45.45765 -73.75807 107 ft 3 kts 357°
2026-05-07 20:34 45.45747 -73.75800 107 ft 3 kts 328°
2026-05-07 20:34 45.45737 -73.75792 107 ft 0 kts 308°
2026-05-07 20:36 45.45738 -73.75794 107 ft 1 kts 308°
2026-05-07 20:36 45.45738 -73.75795 107 ft 0 kts 308°
2026-05-07 20:37 45.45739 -73.75795 107 ft 0 kts 308°
2026-05-07 20:37 45.45746 -73.75811 108 ft 2 kts 304°
2026-05-07 20:37 45.45756 -73.75831 108 ft 2 kts 305°
2026-05-07 20:37 45.45767 -73.75854 109 ft 5 kts 305°
2026-05-07 20:38 45.45801 -73.75906 109 ft 8 kts 324°
2026-05-07 20:38 45.45858 -73.75936 109 ft 9 kts 345°
2026-05-07 20:38 45.45921 -73.75951 109 ft 9 kts 354°
2026-05-07 20:38 45.45988 -73.75958 109 ft 10 kts 357°
2026-05-07 20:39 45.46060 -73.75960 108 ft 11 kts 358°
2026-05-07 20:39 45.46116 -73.75912 108 ft 10 kts 64°
2026-05-07 20:39 45.46128 -73.75816 107 ft 10 kts 86°
2026-05-07 20:39 45.46131 -73.75702 106 ft 16 kts 88°
2026-05-07 20:40 45.46137 -73.75490 105 ft 25 kts 88°
2026-05-07 20:40 45.46144 -73.75241 105 ft 25 kts 87°
2026-05-07 20:40 45.46152 -73.75000 108 ft 23 kts 88°
2026-05-07 20:40 45.46158 -73.74768 108 ft 24 kts 87°
2026-05-07 20:41 45.46150 -73.74595 107 ft 14 kts 114°
2026-05-07 20:41 45.46130 -73.74464 107 ft 16 kts 91°
2026-05-07 20:41 45.46134 -73.74291 107 ft 20 kts 88°
2026-05-07 20:41 45.46140 -73.74095 108 ft 16 kts 81°
2026-05-07 20:42 45.46208 -73.73969 109 ft 18 kts 44°
2026-05-07 20:42 45.46309 -73.73835 110 ft 21 kts 43°
2026-05-07 20:42 45.46425 -73.73684 112 ft 24 kts 43°
2026-05-07 20:42 45.46552 -73.73516 110 ft 26 kts 43°
2026-05-07 20:43 45.46691 -73.73335 112 ft 28 kts 41°
2026-05-07 20:43 45.46840 -73.73141 114 ft 30 kts 42°
2026-05-07 20:43 45.46996 -73.72933 117 ft 31 kts 44°
2026-05-07 20:43 45.47162 -73.72716 119 ft 33 kts 42°
2026-05-07 20:44 45.47338 -73.72486 120 ft 35 kts 42°
2026-05-07 20:44 45.47521 -73.72245 123 ft 36 kts 42°
2026-05-07 20:44 45.47696 -73.72016 120 ft 24 kts 42°
2026-05-07 20:44 45.47775 -73.71913 121 ft 16 kts 43°
2026-05-07 20:45 45.47853 -73.71806 122 ft 12 kts 50°
2026-05-07 20:45 45.47867 -73.71766 122 ft 3 kts 74°
2026-05-07 20:45 45.47861 -73.71729 122 ft 8 kts 111°
2026-05-07 20:45 45.47823 -73.71650 121 ft 12 kts 130°
2026-05-07 20:46 45.47754 -73.71582 124 ft 12 kts 174°
2026-05-07 20:46 45.47676 -73.71639 126 ft 12 kts 221°
2026-05-07 20:46 45.47653 -73.71668 124 ft 2 kts 221°
2026-05-07 20:46 45.47643 -73.71680 123 ft 2 kts 222°
2026-05-07 20:47 45.47522 -73.71839 124 ft 52 kts 223°
2026-05-07 20:47 45.47119 -73.72371 117 ft 104 kts 223°
2026-05-07 20:47 45.46477 -73.73209 116 ft 145 kts 222°
2026-05-07 20:47 45.45694 -73.74207 514 ft 153 kts 229°
2026-05-07 20:48 45.44890 -73.75247 1135 ft 158 kts 229°
2026-05-07 20:48 45.44079 -73.76368 1540 ft 174 kts 230°
2026-05-07 20:48 45.43144 -73.77675 1772 ft 204 kts 228°
2026-05-07 20:48 45.42062 -73.79153 2188 ft 223 kts 227°
2026-05-07 20:49 45.40910 -73.80711 2844 ft 233 kts 228°
2026-05-07 20:49 45.39711 -73.82294 3693 ft 238 kts 225°
2026-05-07 20:49 45.38319 -73.83630 4543 ft 244 kts 216°
2026-05-07 20:49 45.36811 -73.84812 5380 ft 250 kts 213°
2026-05-07 20:50 45.35236 -73.85915 6214 ft 254 kts 211°
2026-05-07 20:50 45.33611 -73.86980 6978 ft 259 kts 209°
2026-05-07 20:50 45.31969 -73.88024 7745 ft 263 kts 210°
2026-05-07 20:50 45.30280 -73.89090 8555 ft 266 kts 210°
2026-05-07 20:51 45.28580 -73.90168 9424 ft 269 kts 209°
2026-05-07 20:51 45.26850 -73.91274 10129 ft 278 kts 210°
2026-05-07 20:51 45.25036 -73.92450 10478 ft 295 kts 210°
2026-05-07 20:51 45.23110 -73.93707 10741 ft 313 kts 209°
2026-05-07 20:52 45.21103 -73.95017 11002 ft 329 kts 209°
2026-05-07 20:52 45.18965 -73.96410 11277 ft 345 kts 209°
2026-05-07 20:52 45.16745 -73.97849 11741 ft 353 kts 209°
2026-05-07 20:52 45.14494 -73.99303 12344 ft 358 kts 209°
2026-05-07 20:53 45.12218 -74.00770 12991 ft 361 kts 209°
2026-05-07 20:53 45.09921 -74.02249 13647 ft 364 kts 209°
2026-05-07 20:53 45.07628 -74.03727 14253 ft 367 kts 209°
2026-05-07 20:53 45.05290 -74.05233 14919 ft 368 kts 209°
2026-05-07 20:54 45.02958 -74.06734 15599 ft 368 kts 210°
2026-05-07 20:54 45.00601 -74.08170 16304 ft 372 kts 206°
2026-05-07 20:54 44.98082 -74.09149 16976 ft 378 kts 199°
2026-05-07 20:54 44.95481 -74.09850 17627 ft 382 kts 197°
2026-05-07 20:55 44.92834 -74.10417 18264 ft 386 kts 195°
2026-05-07 20:55 44.90155 -74.10915 18787 ft 389 kts 194°
2026-05-07 20:55 44.87456 -74.11389 19322 ft 392 kts 194°
2026-05-07 20:55 44.84743 -74.11863 19847 ft 394 kts 195°
2026-05-07 20:56 44.82048 -74.12343 20384 ft 396 kts 195°
2026-05-07 20:56 44.79303 -74.12842 20906 ft 398 kts 195°
2026-05-07 20:56 44.76575 -74.13498 21427 ft 395 kts 200°
2026-05-07 20:56 44.73955 -74.14602 21935 ft 391 kts 208°
2026-05-07 20:57 44.71510 -74.16218 22441 ft 386 kts 216°
2026-05-07 20:57 44.69307 -74.18337 22934 ft 382 kts 224°
2026-05-07 20:57 44.67297 -74.20789 23424 ft 382 kts 227°
2026-05-07 20:57 44.65372 -74.23349 23900 ft 380 kts 229°
2026-05-07 20:58 44.63516 -74.25919 24346 ft 380 kts 229°
2026-05-07 20:58 44.61643 -74.28544 24712 ft 382 kts 229°
2026-05-07 20:58 44.59754 -74.31187 25091 ft 384 kts 229°
2026-05-07 20:58 44.57846 -74.33832 25469 ft 386 kts 229°
2026-05-07 20:59 44.55925 -74.36473 25837 ft 387 kts 229°
2026-05-07 20:59 44.53989 -74.39117 26213 ft 389 kts 229°
2026-05-07 20:59 44.52040 -74.41768 26558 ft 391 kts 229°
2026-05-07 20:59 44.50080 -74.44427 26920 ft 391 kts 229°
2026-05-07 21:00 44.48129 -74.47067 27436 ft 389 kts 229°
2026-05-07 21:00 44.46181 -74.49704 27789 ft 391 kts 229°
2026-05-07 21:00 44.44246 -74.52323 28084 ft 393 kts 229°
2026-05-07 21:00 44.42274 -74.54992 28405 ft 395 kts 229°
2026-05-07 21:01 44.40290 -74.57674 28716 ft 397 kts 229°
2026-05-07 21:01 44.38302 -74.60358 29024 ft 398 kts 229°
2026-05-07 21:01 44.36302 -74.63055 29361 ft 399 kts 229°
2026-05-07 21:01 44.34305 -74.65742 29815 ft 396 kts 229°
2026-05-07 21:02 44.32321 -74.68407 30296 ft 392 kts 229°
2026-05-07 21:02 44.30384 -74.71007 30589 ft 392 kts 229°
2026-05-07 21:02 44.29054 -74.72794 30735 ft 393 kts 229°
2026-05-07 21:02 44.26436 -74.76312 31055 ft 395 kts 229°
2026-05-07 21:03 44.24456 -74.78968 31319 ft 395 kts 229°
2026-05-07 21:03 44.23111 -74.80771 31488 ft 396 kts 229°
2026-05-07 21:03 44.21122 -74.83433 31735 ft 396 kts 228°
2026-05-07 21:03 44.19158 -74.86059 31998 ft 396 kts 228°
2026-05-07 21:04 44.17164 -74.88722 32245 ft 396 kts 228°
2026-05-07 21:04 44.15181 -74.91366 32636 ft 393 kts 228°
2026-05-07 21:04 44.13202 -74.94003 32868 ft 394 kts 228°
2026-05-07 21:04 44.11216 -74.96648 33062 ft 395 kts 227°
2026-05-07 21:05 44.09227 -74.99296 33303 ft 396 kts 227°
2026-05-07 21:05 44.07229 -75.01953 33526 ft 396 kts 227°
2026-05-07 21:05 44.05232 -75.04605 33767 ft 398 kts 227°
2026-05-07 21:06 44.01217 -75.09933 33971 ft 403 kts 227°
2026-05-07 21:06 43.99193 -75.12610 34269 ft 401 kts 227°
2026-05-07 21:06 43.97172 -75.15282 34479 ft 401 kts 227°
2026-05-07 21:06 43.95152 -75.17950 34634 ft 402 kts 227°
2026-05-07 21:07 43.93124 -75.20627 34810 ft 402 kts 227°
2026-05-07 21:07 43.91089 -75.23311 34973 ft 403 kts 227°
2026-05-07 21:07 43.89050 -75.25998 35143 ft 404 kts 227°
2026-05-07 21:07 43.87012 -75.28680 35320 ft 404 kts 227°
2026-05-07 21:08 43.84966 -75.31371 35480 ft 405 kts 227°
2026-05-07 21:08 43.82948 -75.34022 35644 ft 406 kts 227°
2026-05-07 21:08 43.80894 -75.36717 35807 ft 406 kts 227°
2026-05-07 21:08 43.78836 -75.39415 35959 ft 407 kts 227°
2026-05-07 21:09 43.76781 -75.42106 36109 ft 407 kts 227°
2026-05-07 21:09 43.74715 -75.44809 36233 ft 410 kts 227°
2026-05-07 21:09 43.72637 -75.47526 36304 ft 412 kts 227°
2026-05-07 21:09 43.70551 -75.50250 36455 ft 412 kts 227°
2026-05-07 21:10 43.68461 -75.52975 36611 ft 411 kts 227°
2026-05-07 21:10 43.66380 -75.55684 36848 ft 410 kts 227°
2026-05-07 21:10 43.64327 -75.58355 36996 ft 410 kts 227°
2026-05-07 21:10 43.62241 -75.61068 37135 ft 411 kts 227°
2026-05-07 21:11 43.60159 -75.63774 37271 ft 411 kts 227°
2026-05-07 21:11 43.58071 -75.66485 37423 ft 412 kts 227°
2026-05-07 21:11 43.53910 -75.71878 37710 ft 413 kts 227°
2026-05-07 21:12 43.51815 -75.74589 37815 ft 413 kts 227°
2026-05-07 21:12 43.49718 -75.77299 37912 ft 414 kts 227°
2026-05-07 21:12 43.45528 -75.82706 37920 ft 411 kts 227°
2026-05-07 21:13 43.41345 -75.88094 37922 ft 412 kts 227°
2026-05-07 21:13 43.37160 -75.93475 37908 ft 412 kts 227°
2026-05-07 21:14 43.32966 -75.98856 37913 ft 411 kts 227°
2026-05-07 21:14 43.28809 -76.04180 37909 ft 411 kts 227°
2026-05-07 21:15 43.24620 -76.09532 37903 ft 411 kts 227°
2026-05-07 21:15 43.21140 -76.13973 37909 ft 411 kts 227°